Regional Weather Roundup
Issued by NWS Green Bay, WI

Home | Current Version | Previous Version | Text Only | Print | Product List | Glossary On
Versions: 1 2 3 4 5 6 7 8 9 10 11 12 13 14 15 16 17 18 19 20 21 22 23 24 25 26 27 28 29 30 31 32 33 34 35 36 37 38 39 40 41 42 43 44 45 46 47 48 49 50
000
ASUS43 KGRB 010500
RWRGRB

NORTH-CENTRAL AND NORTHEAST WISCONSIN REGIONAL WEATHER ROUNDUP
NATIONAL WEATHER SERVICE GREEN BAY WI
1200 AM CDT SAT OCT 01 2016

WIZ005-009-010>012-018-019-010600-
NORTH CENTRAL WISCONSIN

CITY           SKY/WX    TMP DP  RH WIND       PRES   REMARKS
IRONWOOD       CLEAR     51  50  96 CALM      30.26F
MANITOWISH WTR NOT AVBL
ARBOR VITAE    NOT AVBL
EAGLE RIVER    NOT AVBL
LAND O LAKES   NOT AVBL
RHINELANDER    CLEAR     54  51  90 NE3       30.24F
PHILLIPS       NOT AVBL
ANTIGO         NOT AVBL
TOMAHAWK       NOT AVBL
MERRILL        NOT AVBL
$$

WIZ013-073-010600-
NORTHEAST WISCONSIN

CITY           SKY/WX    TMP DP  RH WIND       PRES   REMARKS
IRON MOUNTAIN  CLOUDY    57  50  77 N5        30.23F
MARINETTE      CLOUDY    62  55  77 E13       30.21F
$$

WIZ017-030-035>037-045-010600-
CENTRAL WISCONSIN

CITY           SKY/WX    TMP DP  RH WIND       PRES   REMARKS
MEDFORD        NOT AVBL
WAUSAU         CLOUDY    59  50  72 NE7       30.19S
MOSINEE        NOT AVBL
MARSHFIELD     CLOUDY    61  51  70 NE6       30.18F
WISC RAPIDS    CLOUDY    60  54  80 NE5       30.18F
STEVENS POINT  NOT AVBL
WAUPACA        NOT AVBL
SHAWANO        NOT AVBL
CLINTONVILLE   NOT AVBL
WAUTOMA        LGT RAIN  58  57  97 NE9       30.16S FOG
$$

WIZ038-039-048-051-010600-
FOX VALLEY

CITY           SKY/WX    TMP DP  RH WIND       PRES   REMARKS
NWS GREEN BAY  CLOUDY    62  60  93 NE13      30.16F
APPLETON       NOT AVBL
OSHKOSH        LGT RAIN  61  59  93 NE10      30.14S
FOND DU LAC    LGT RAIN  61  59  93 NE10      30.13F FOG
$$

WIZ022-050-052-010600-
EAST CENTRAL WISCONSIN

CITY           SKY/WX    TMP DP  RH WIND       PRES   REMARKS
EPHRAIM        NOT AVBL
WASHINGTON ISL NOT AVBL
STURGEON BAY   CLOUDY    61  55  81 E8        30.19F
MANITOWOC      NOT AVBL
SHEBOYGAN      RAIN      61  58  90 NE16G23   30.13S FOG
$$

LMZ563-521-522-541>543-010600-
LAKESHORE

STATION/POSITION TIME  TEMP    WIND        PRES    VSBY  WAVE
                       AIR SEA DIR/SP/G                  HT/PER
                 (UTC) (F)     (DEG/KT/KT) (MB)    (MI)  (FT/S)
SHEBOYGAN LKSHOR 0400   61      50/ 16/ 18 1020.1F
KEWAUNEE LKSHORE 0400   61      70/ 12/ 18 1021.2S
N MID LAKE BUOY  0350   64 65  100/ 19/ 25 1022.3R         5/ 5
CHAMBERS ISLAND  0400   63      60/ 13/ 16 1022.7R
MENOMINEE LKSHOR 0400   63      60/ 18/ 20 1022.1S
$$




USA.gov is the U.S. government's official web portal to all federal, state and local government web resources and services.